sat.trackr.live / text

‹ back to catalog

STARLINK-32029

NORAD 60145 · 2024-120L

PAYLOAD ACTIVE UNKNOWN

§ Identity

Operator
Country
US
Launch date
2024-06-27
Launch site
AFETR
Launch vehicle
Mass (kg)
RCS (m²)

Purposes: comms

External: N2YO · Heavens-Above · Gunter

§ Orbital elements

Epoch: 2026-09-21T21:03:42.839424Z

Period
93.85 min
Inclination
53.1594°
Eccentricity
0.0001304
Mean motion
15.34393439 rev/d
Perigee alt
461.8 km
Apogee alt
463.6 km
Semi-major
6,840.9 km
B*
-1.4485e-5
RAAN
125.0918°
Arg perigee
86.4169°
Mean anomaly
273.6982°
Rev number
12,646

§ Raw data

STARLINK-320291 60145U 24120L   26264.87757916 -.00000866  00000+0 -14485-4 0  99922 60145  53.1594 125.0918 0001304  86.4169 273.6982 15.34393439126463

JSON: /api/v1/satellites/60145 · /tle

For live sub-satellite position, see the globe view (requires WebGL).

§ Visibility from observer

Set your observer location to see the next 7 days of passes ≥ 10°. The values pass through the URL so the page stays shareable.

No JS? Fill the form by hand. The geolocation button needs JavaScript.